ロニオス彗星

359P/LONEOS (2017)

English version
Home page
Updated on June 15, 2021

---------------------------------------------------------------------

・ プロフィール

符号 359P/2017 Q2
検出日 2017年8月22日
検出光度 20.6等
検出者 Pan-STARRS 1 telescope (Haleakala)

・ 写真集

・ 軌道要素

Epoch 2017 Sept. 4.0 TT = JDT 2458000.5
T 2017 Aug. 20.49332 TT                                 MPCW
q   3.1396835            (2000.0)            P               Q
n   0.09869501     Peri.  200.11539     +0.98177911     +0.16756819
a   4.6373790      Node   149.79874     -0.14066480     +0.95793325
e   0.3229616      Incl.   10.26176     -0.12776227     +0.23299097
P   9.99
From 128 observations 2007 Aug. 21-2018 Feb. 10, mean residual 0".5.

・ 光度変化

        m1 = 13.0 + 5 logΔ + 10.0 log r  [   ,120]  (              〜2017年12月18日)
        m1 =  0.0 + 5 logΔ + 30   log r  [120,   ]  (2017年12月18日〜              )

---------------------------------------------------------------------

軌道要素はM.P.E.C. 2018-H105に掲載されたものです。
光度グラフはComet for Windowsで作成したものです。

---------------------------------------------------------------------

Copyright(C) Seiichi Yoshida (comet@aerith.net). All rights reserved.